Regional Weather Roundup
Issued by NWS

Home | Current Version | Previous Version | Text Only | Print | Product List | Glossary On
Versions: 1 2 3 4 5 6 7 8 9 10 11 12 13 14 15 16 17 18 19 20 21 22 23 24 25 26 27 28 29 30 31 32 33 34 35 36 37 38 39 40 41 42 43 44 45 46 47 48 49 50
000
ASUS43 KDMX 022007
RWRIA

WEATHER ROUNDUP FOR IOWA
NATIONAL WEATHER SERVICE DES MOINES IA
200 PM CST MON MAR 02 2015

NOTE: "FAIR" INDICATES FEW OR NO CLOUDS BELOW 12,000 FEET WITH NO
SIGNIFICANT WEATHER AND/OR OBSTRUCTIONS TO VISIBILITY.

* - THESE STATIONS ARE NOT NWS STATIONS...THUS NOT UNDER NWS
QUALITY CONTROL.  THEY ALSO DO NOT REPORT WEATHER SUCH
AS PRECIPITATION OR FOG.

IAZ001>003-012>014-020>022-031>034-043>046-022100-
   NORTHWEST IOWA

CITY           SKY/WX    TMP DP  RH WIND       PRES   REMARKS
CARROLL *      CLOUDY    30  19  64 SE14      30.31F WCI  20
CHEROKEE *     CLOUDY    30  19  64 SE13      30.27F WCI  20
DENISON *      CLOUDY    32  18  55 S13       30.27F WCI  22
LE MARS *      CLOUDY    32  18  55 SE14G21   30.26F WCI  22
ORANGE CITY *  CLOUDY    30  16  55 SE9       30.24F WCI  22
SHELDON *      CLOUDY    27  16  63 SE15G23   30.24F WCI  15
SIOUX CITY     CLOUDY    34  18  52 S17G24    30.27  WCI  23
SPENCER        CLOUDY    27  17  66 S16       30.28  WCI  15
STORM LAKE *   CLOUDY    28  18  64 SE15      30.28F WCI  17
$$

IAZ055>058-069>071-079>083-090>094-022100-
   SOUTHWEST IOWA

CITY           SKY/WX    TMP DP  RH WIND       PRES   REMARKS
ATLANTIC *     CLOUDY    34  19  55 SE8G16    30.31F WCI  27
AUDUBON *      MOSUNNY   32  18  55 SE10      30.32F WCI  24
CLARINDA *     CLOUDY    41  18  38 S12G18    30.33F
COUNCIL BLFS * CLOUDY    39  21  48 S14G21    30.27F WCI  31
CRESTON *      CLOUDY    36  16  44 SE12      30.32F WCI  27
HARLAN  *      CLOUDY    32  23  69 SE13      30.33F WCI  22
LAMONI         MOSUNNY   34  17  50 SE9       30.35  WCI  27
RED OAK *      CLOUDY    39  18  41 S14G20    30.30F WCI  31
SHENANDOAH *   CLOUDY    41  19  42 S14G22    30.31F
$$

IAZ047>049-059>061-072>074-084-022100-
   CENTRAL IOWA

CITY           SKY/WX    TMP DP  RH WIND       PRES   REMARKS
AMES           CLOUDY    26  15  63 SE7       30.37  WCI  18
ANKENY *       CLOUDY    28  16  59 E8        30.39F WCI  20
CHARITON *     CLOUDY    32  16  51 S8        30.37F WCI  25
DES MOINES     CLOUDY    31  15  52 SE7       30.38  WCI  24
GRINNELL*      CLOUDY    25  16  68 E6        30.39F WCI  18
KNOXVILLE *    CLOUDY    30  14  51 SE8       30.38F WCI  23
MARSHALLTOWN   CLOUDY    24  15  68 E8        30.38  WCI  15
PELLA *        MOSUNNY   30  19  64 SE7       30.41F WCI  23
PERRY *          N/A     30  19  64 SE9       30.35F WCI  22
$$

IAZ004>006-015-016-023>025-035-036-022100-
   NORTH CENTRAL IOWA

CITY           SKY/WX    TMP DP  RH WIND       PRES   REMARKS
ALGONA *       CLOUDY    25  18  74 S13       30.33F WCI  13
CLARION *      CLOUDY    25  19  80 SE10      30.35F WCI  15
ESTHERVILLE    CLOUDY    24  16  71 S14       30.30  WCI  12
FORT DODGE *   CLOUDY    27  16  63 S8        30.35F WCI  18
MASON CITY     CLOUDY    20  13  74 S9        30.37  WCI   9
FOREST CITY *  MOSUNNY   25  12  58 S8        30.35F WCI  16
IOWA FALLS *   CLOUDY    23  14  68 SE6       30.38F WCI  16
$$

IAZ007>011-017>019-026>030-037>042-050>054-066-022100-
   NORTHEAST IOWA

CITY           SKY/WX    TMP DP  RH WIND       PRES   REMARKS
CEDAR RAPIDS   CLOUDY    25  15  66 CALM      30.41
CHARLES CITY * CLOUDY    21  10  63 S7        30.40F WCI  13
CLINTON *      SUNNY     27  16  63 S6        30.47F WCI  20
DECORAH *      SUNNY     23   9  54 S7        30.37F WCI  15
DUBUQUE        MOSUNNY   24  14  65 S6        30.41  WCI  17
MONTICELLO *   MOSUNNY   23  14  68 CALM      30.42F
OELWEIN *      MOSUNNY   21  12  68 S6        30.41F WCI  14
WATERLOO       CLOUDY    22  14  71 E6        30.41  WCI  14
$$

IAZ064-065-067-068-078-022100-
   EAST CENTRAL IOWA

CITY           SKY/WX    TMP DP  RH WIND       PRES   REMARKS
DAVENPORT      SUNNY     27  15  61 NE6       30.44  WCI  20
IOWA CITY      CLOUDY    26  16  65 SE9       30.44  WCI  17
MT. PLEASANT * CLOUDY    27  14  59 N5        30.43F WCI  21
MUSCATINE *    CLOUDY    30  14  51 SW5       30.45F WCI  25
QUAD CITIES    SUNNY     28  16  60 S7        30.44  WCI  21
$$

IAZ062-063-075>077-085>089-095>099-022100-
   SOUTHEAST IOWA

CITY           SKY/WX    TMP DP  RH WIND       PRES   REMARKS
BURLINGTON     CLOUDY    29  15  56 SE5       30.44  WCI  24
FAIRFIELD *    CLOUDY    28  12  50 E8        30.42F WCI  20
FORT MADISON * PTSUNNY   28  18  64 S3        30.44F
KEOKUK *       CLOUDY    30  14  51 E8        30.43F WCI  23
OSKALOOSA *    CLOUDY    28  16  59 SE8       30.41F WCI  20
CENTERVILLE *  SUNNY     32  18  55 SE7       30.39F WCI  26
OTTUMWA        CLOUDY    28  15  58 SE8       30.39  WCI  20
WASHINGTON *   CLOUDY    28  19  69 E6        30.43F WCI  22
$$

ABBREVIATIONS USED IN REMARKS
   TC - TEMPERATURES IN CELSIUS
  WCI - WIND CHILL INDEX
   HX - HEAT INDEX
  VSB - VISIBILITY
$$




USA.gov is the U.S. government's official web portal to all federal, state and local government web resources and services.